Year,Month,Day,Hour,Minute,Value (Times are PST for temperature in C)
2020,03,29,00,00,7.10
2020,03,29,00,01,7.10
2020,03,29,00,02,7.10
2020,03,29,00,03,7.10
2020,03,29,00,04,7.10
2020,03,29,00,05,7.10
2020,03,29,00,06,7.10
2020,03,29,00,07,7.10
2020,03,29,00,08,7.10
2020,03,29,00,09,7.10
2020,03,29,00,10,7.10
2020,03,29,00,11,7.10
2020,03,29,00,12,7.10
2020,03,29,00,13,7.10
2020,03,29,00,14,7.10
2020,03,29,00,15,7.10
2020,03,29,00,16,7.10
2020,03,29,00,17,7.10
2020,03,29,00,18,7.10
2020,03,29,00,19,7.10
2020,03,29,00,20,7.10
2020,03,29,00,21,7.10
2020,03,29,00,22,7.10
2020,03,29,00,23,7.10
2020,03,29,00,24,7.10
2020,03,29,00,25,7.10
2020,03,29,00,26,7.10
2020,03,29,00,27,7.10
2020,03,29,00,28,7.10
2020,03,29,00,29,7.10
2020,03,29,00,30,7.10
2020,03,29,00,31,7.10
2020,03,29,00,32,7.10
2020,03,29,00,33,7.10
2020,03,29,00,34,7.10
2020,03,29,00,35,7.10
2020,03,29,00,36,7.10
2020,03,29,00,37,7.10
2020,03,29,00,38,7.10
2020,03,29,00,39,7.10
2020,03,29,00,40,7.00
2020,03,29,00,41,7.00
2020,03,29,00,42,7.00
2020,03,29,00,43,7.00
2020,03,29,00,44,7.00
2020,03,29,00,45,7.00
2020,03,29,00,46,7.00
2020,03,29,00,47,7.00
2020,03,29,00,48,7.00
2020,03,29,00,49,7.00
2020,03,29,00,50,7.00
2020,03,29,00,51,7.00
2020,03,29,00,52,7.00
2020,03,29,00,53,7.00
2020,03,29,00,54,6.90
2020,03,29,00,55,6.90
2020,03,29,00,56,6.90
2020,03,29,00,57,6.90
2020,03,29,00,58,6.90
2020,03,29,00,59,6.90
2020,03,29,01,00,6.90
2020,03,29,01,01,6.90
2020,03,29,01,02,6.90
2020,03,29,01,03,6.90
2020,03,29,01,04,6.90
2020,03,29,01,05,6.90
2020,03,29,01,06,6.90
2020,03,29,01,07,6.90
2020,03,29,01,08,6.90
2020,03,29,01,09,6.90
2020,03,29,01,10,6.90
2020,03,29,01,11,6.90
2020,03,29,01,12,6.90
2020,03,29,01,13,6.90
2020,03,29,01,14,6.90
2020,03,29,01,15,6.90
2020,03,29,01,16,6.90
2020,03,29,01,17,6.90
2020,03,29,01,18,6.90
2020,03,29,01,19,6.90
2020,03,29,01,20,6.90
2020,03,29,01,21,6.90
2020,03,29,01,22,6.90
2020,03,29,01,23,6.90
2020,03,29,01,24,6.90
2020,03,29,01,25,6.90
2020,03,29,01,26,6.90
2020,03,29,01,27,6.90
2020,03,29,01,28,6.90
2020,03,29,01,29,6.90
2020,03,29,01,30,6.90
2020,03,29,01,31,6.90
2020,03,29,01,32,6.90
2020,03,29,01,33,6.90
2020,03,29,01,34,6.90
2020,03,29,01,35,6.90
2020,03,29,01,36,6.90
2020,03,29,01,37,6.90
2020,03,29,01,38,6.80
2020,03,29,01,39,6.80
2020,03,29,01,40,6.80
2020,03,29,01,41,6.80
2020,03,29,01,42,6.80
2020,03,29,01,43,6.80
2020,03,29,01,44,6.80
2020,03,29,01,45,6.80
2020,03,29,01,46,6.80
2020,03,29,01,47,6.80
2020,03,29,01,48,6.80
2020,03,29,01,49,6.80
2020,03,29,01,50,6.80
2020,03,29,01,51,6.80
2020,03,29,01,52,6.80
2020,03,29,01,53,6.80
2020,03,29,01,54,6.80
2020,03,29,01,55,6.80
2020,03,29,01,56,6.80
2020,03,29,01,57,6.80
2020,03,29,01,58,6.80
2020,03,29,01,59,6.80
2020,03,29,02,00,6.80
2020,03,29,02,01,6.80
2020,03,29,02,02,6.80
2020,03,29,02,03,6.80
2020,03,29,02,04,6.80
2020,03,29,02,05,6.80
2020,03,29,02,06,6.80
2020,03,29,02,07,6.80
2020,03,29,02,08,6.80
2020,03,29,02,09,6.80
2020,03,29,02,10,6.80
2020,03,29,02,11,6.80
2020,03,29,02,12,6.80
2020,03,29,02,13,6.80
2020,03,29,02,14,6.80
2020,03,29,02,15,6.80
2020,03,29,02,16,6.80
2020,03,29,02,17,6.80
2020,03,29,02,18,6.80
2020,03,29,02,19,6.80
2020,03,29,02,20,6.80
2020,03,29,02,21,6.80
2020,03,29,02,22,6.80
2020,03,29,02,23,6.80
2020,03,29,02,24,6.70
2020,03,29,02,25,6.70
2020,03,29,02,26,6.70
2020,03,29,02,27,6.70
2020,03,29,02,28,6.70
2020,03,29,02,29,6.70
2020,03,29,02,30,6.70
2020,03,29,02,31,6.70
2020,03,29,02,32,6.70
2020,03,29,02,33,6.70
2020,03,29,02,34,6.70
2020,03,29,02,35,6.70
2020,03,29,02,36,6.70
2020,03,29,02,37,6.70
2020,03,29,02,38,6.70
2020,03,29,02,39,6.70
2020,03,29,02,40,6.70
2020,03,29,02,41,6.70
2020,03,29,02,42,6.70
2020,03,29,02,43,6.70
2020,03,29,02,44,6.70
2020,03,29,02,45,6.70
2020,03,29,02,46,6.70
2020,03,29,02,47,6.70
2020,03,29,02,48,6.70
2020,03,29,02,49,6.70
2020,03,29,02,50,6.70
2020,03,29,02,51,6.70
2020,03,29,02,52,6.70
2020,03,29,02,53,6.70
2020,03,29,02,54,6.70
2020,03,29,02,55,6.70
2020,03,29,02,56,6.70
2020,03,29,02,57,6.70
2020,03,29,02,58,6.70
2020,03,29,02,59,6.70
2020,03,29,03,00,6.70
2020,03,29,03,01,6.70
2020,03,29,03,02,6.70
2020,03,29,03,03,6.70
2020,03,29,03,04,6.70
2020,03,29,03,05,6.70
2020,03,29,03,06,6.70
2020,03,29,03,07,6.70
2020,03,29,03,08,6.70
2020,03,29,03,09,6.70
2020,03,29,03,10,6.70
2020,03,29,03,11,6.70
2020,03,29,03,12,6.70
2020,03,29,03,13,6.70
2020,03,29,03,14,6.70
2020,03,29,03,15,6.70
2020,03,29,03,16,6.70
2020,03,29,03,17,6.70
2020,03,29,03,18,6.70
2020,03,29,03,19,6.70
2020,03,29,03,20,6.70
2020,03,29,03,21,6.70
2020,03,29,03,22,6.70
2020,03,29,03,23,6.70
2020,03,29,03,24,6.70
2020,03,29,03,25,6.70
2020,03,29,03,26,6.70
2020,03,29,03,27,6.70
2020,03,29,03,28,6.70
2020,03,29,03,29,6.70
2020,03,29,03,30,6.70
2020,03,29,03,31,6.70
2020,03,29,03,32,6.70
2020,03,29,03,33,6.70
2020,03,29,03,34,6.70
2020,03,29,03,35,6.70
2020,03,29,03,36,6.70
2020,03,29,03,37,6.70
2020,03,29,03,38,6.70
2020,03,29,03,39,6.70
2020,03,29,03,40,6.70
2020,03,29,03,41,6.70
2020,03,29,03,42,6.70
2020,03,29,03,43,6.70
2020,03,29,03,44,6.70
2020,03,29,03,45,6.70
2020,03,29,03,46,6.70
2020,03,29,03,47,6.60
2020,03,29,03,48,6.70
2020,03,29,03,49,6.60
2020,03,29,03,50,6.60
2020,03,29,03,51,6.60
2020,03,29,03,52,6.60
2020,03,29,03,53,6.60
2020,03,29,03,54,6.60
2020,03,29,03,55,6.60
2020,03,29,03,56,6.60
2020,03,29,03,57,6.60
2020,03,29,03,58,6.60
2020,03,29,03,59,6.60
2020,03,29,04,00,6.60
2020,03,29,04,01,6.60
2020,03,29,04,02,6.60
2020,03,29,04,03,6.60
2020,03,29,04,04,6.60
2020,03,29,04,05,6.60
2020,03,29,04,06,6.60
2020,03,29,04,07,6.60
2020,03,29,04,08,6.60
2020,03,29,04,09,6.60
2020,03,29,04,10,6.60
2020,03,29,04,11,6.60
2020,03,29,04,12,6.60
2020,03,29,04,13,6.60
2020,03,29,04,14,6.60
2020,03,29,04,15,6.60
2020,03,29,04,16,6.60
2020,03,29,04,17,6.60
2020,03,29,04,18,6.60
2020,03,29,04,19,6.60
2020,03,29,04,20,6.60
2020,03,29,04,21,6.60
2020,03,29,04,22,6.50
2020,03,29,04,23,6.50
2020,03,29,04,24,6.50
2020,03,29,04,25,6.50
2020,03,29,04,26,6.50
2020,03,29,04,27,6.50
2020,03,29,04,28,6.50
2020,03,29,04,29,6.50
2020,03,29,04,30,6.50
2020,03,29,04,31,6.50
2020,03,29,04,32,6.50
2020,03,29,04,33,6.50
2020,03,29,04,34,6.50
2020,03,29,04,35,6.50
2020,03,29,04,36,6.50
2020,03,29,04,37,6.50
2020,03,29,04,38,6.50
2020,03,29,04,39,6.50
2020,03,29,04,40,6.50
2020,03,29,04,41,6.50
2020,03,29,04,42,6.50
2020,03,29,04,43,6.50
2020,03,29,04,44,6.50
2020,03,29,04,45,6.50
2020,03,29,04,46,6.50
2020,03,29,04,47,6.50
2020,03,29,04,48,6.50
2020,03,29,04,49,6.50
2020,03,29,04,50,6.60
2020,03,29,04,51,6.50
2020,03,29,04,52,6.60
2020,03,29,04,53,6.50
2020,03,29,04,54,6.60
2020,03,29,04,55,6.60
2020,03,29,04,56,6.60
2020,03,29,04,57,6.60
2020,03,29,04,58,6.60
2020,03,29,04,59,6.60
2020,03,29,05,00,6.60
2020,03,29,05,01,6.60
2020,03,29,05,02,6.60
2020,03,29,05,03,6.60
2020,03,29,05,04,6.60
2020,03,29,05,05,6.60
2020,03,29,05,06,6.60
2020,03,29,05,07,6.60
2020,03,29,05,08,6.50
2020,03,29,05,09,6.50
2020,03,29,05,10,6.50
2020,03,29,05,11,6.50
2020,03,29,05,12,6.50
2020,03,29,05,13,6.50
2020,03,29,05,14,6.50
2020,03,29,05,15,6.50
2020,03,29,05,16,6.50
2020,03,29,05,17,6.50
2020,03,29,05,18,6.50
2020,03,29,05,19,6.50
2020,03,29,05,20,6.50
2020,03,29,05,21,6.50
2020,03,29,05,22,6.50
2020,03,29,05,23,6.40
2020,03,29,05,24,6.40
2020,03,29,05,25,6.40
2020,03,29,05,26,6.40
2020,03,29,05,27,6.40
2020,03,29,05,28,6.40
2020,03,29,05,29,6.40
2020,03,29,05,30,6.40
2020,03,29,05,31,6.40
2020,03,29,05,32,6.40
2020,03,29,05,33,6.40
2020,03,29,05,34,6.40
2020,03,29,05,35,6.40
2020,03,29,05,36,6.40
2020,03,29,05,37,6.40
2020,03,29,05,38,6.40
2020,03,29,05,39,6.40
2020,03,29,05,40,6.40
2020,03,29,05,41,6.40
2020,03,29,05,42,6.40
2020,03,29,05,43,6.50
2020,03,29,05,44,6.50
2020,03,29,05,45,6.50
2020,03,29,05,46,6.50
2020,03,29,05,47,6.50
2020,03,29,05,48,6.50
2020,03,29,05,49,6.50
2020,03,29,05,50,6.50
2020,03,29,05,51,6.50
2020,03,29,05,52,6.50
2020,03,29,05,53,6.50
2020,03,29,05,54,6.50
2020,03,29,05,55,6.50
2020,03,29,05,56,6.50
2020,03,29,05,57,6.50
2020,03,29,05,58,6.50
2020,03,29,05,59,6.50
2020,03,29,06,00,6.50
2020,03,29,06,01,6.50
2020,03,29,06,02,6.50
2020,03,29,06,03,6.50
2020,03,29,06,04,6.50
2020,03,29,06,05,6.50
2020,03,29,06,06,6.50
2020,03,29,06,07,6.50
2020,03,29,06,08,6.50
2020,03,29,06,09,6.40
2020,03,29,06,10,6.40
2020,03,29,06,11,6.40
2020,03,29,06,12,6.40
2020,03,29,06,13,6.40
2020,03,29,06,14,6.40
2020,03,29,06,15,6.40
2020,03,29,06,16,6.40
2020,03,29,06,17,6.40
2020,03,29,06,18,6.40
2020,03,29,06,19,6.40
2020,03,29,06,20,6.40
2020,03,29,06,21,6.40
2020,03,29,06,22,6.40
2020,03,29,06,23,6.40
2020,03,29,06,24,6.40
2020,03,29,06,25,6.40
2020,03,29,06,26,6.40
2020,03,29,06,27,6.40
2020,03,29,06,28,6.40
2020,03,29,06,29,6.30
2020,03,29,06,30,6.30
2020,03,29,06,31,6.30
2020,03,29,06,32,6.30
2020,03,29,06,33,6.30
2020,03,29,06,34,6.20
2020,03,29,06,35,6.20
2020,03,29,06,36,6.20
2020,03,29,06,37,6.20
2020,03,29,06,38,6.20
2020,03,29,06,39,6.20
2020,03,29,06,40,6.10
2020,03,29,06,41,6.10
2020,03,29,06,42,6.10
2020,03,29,06,43,6.00
2020,03,29,06,44,6.00
2020,03,29,06,45,6.00
2020,03,29,06,46,5.90
2020,03,29,06,47,5.90
2020,03,29,06,48,5.90
2020,03,29,06,49,5.80
2020,03,29,06,50,5.80
2020,03,29,06,51,5.80
2020,03,29,06,52,5.70
2020,03,29,06,53,5.70
2020,03,29,06,54,5.70
2020,03,29,06,55,5.70
2020,03,29,06,56,5.70
2020,03,29,06,57,5.70
2020,03,29,06,58,5.60
2020,03,29,06,59,5.60
2020,03,29,07,00,5.60
2020,03,29,07,01,5.60
2020,03,29,07,02,5.60
2020,03,29,07,03,5.50
2020,03,29,07,04,5.50
2020,03,29,07,05,5.50
2020,03,29,07,06,5.50
2020,03,29,07,07,5.50
2020,03,29,07,08,5.40
2020,03,29,07,09,5.40
2020,03,29,07,10,5.40
2020,03,29,07,11,5.40
2020,03,29,07,12,5.40
2020,03,29,07,13,5.40
2020,03,29,07,14,5.40
2020,03,29,07,15,5.40
2020,03,29,07,16,5.40
2020,03,29,07,17,5.40
2020,03,29,07,18,5.30
2020,03,29,07,19,5.30
2020,03,29,07,20,5.30
2020,03,29,07,21,5.30
2020,03,29,07,22,5.30
2020,03,29,07,23,5.30
2020,03,29,07,24,5.30
2020,03,29,07,25,5.30
2020,03,29,07,26,5.30
2020,03,29,07,27,5.30
2020,03,29,07,28,5.20
2020,03,29,07,29,5.20
2020,03,29,07,30,5.20
2020,03,29,07,31,5.20
2020,03,29,07,32,5.20
2020,03,29,07,33,5.20
2020,03,29,07,34,5.20
2020,03,29,07,35,5.20
2020,03,29,07,36,5.20
2020,03,29,07,37,5.20
2020,03,29,07,38,5.20
2020,03,29,07,39,5.20
2020,03,29,07,40,5.20
2020,03,29,07,41,5.20
2020,03,29,07,42,5.20
2020,03,29,07,43,5.20
2020,03,29,07,44,5.20
2020,03,29,07,45,5.20
2020,03,29,07,46,5.20
2020,03,29,07,47,5.20
2020,03,29,07,48,5.20
2020,03,29,07,49,5.20
2020,03,29,07,50,5.20
2020,03,29,07,51,5.20
2020,03,29,07,52,5.20
2020,03,29,07,53,5.30
2020,03,29,07,54,5.30
2020,03,29,07,55,5.30
2020,03,29,07,56,5.30
2020,03,29,07,57,5.30
2020,03,29,07,58,5.30
2020,03,29,07,59,5.30
2020,03,29,08,00,5.30
2020,03,29,08,01,5.30
2020,03,29,08,02,5.30
2020,03,29,08,03,5.30
2020,03,29,08,04,5.30
2020,03,29,08,05,5.30
2020,03,29,08,06,5.40
2020,03,29,08,07,5.40
2020,03,29,08,08,5.40
2020,03,29,08,09,5.40
2020,03,29,08,10,5.40
2020,03,29,08,11,5.40
2020,03,29,08,12,5.50
2020,03,29,08,13,5.50
2020,03,29,08,14,5.50
2020,03,29,08,15,5.50
2020,03,29,08,16,5.60
2020,03,29,08,17,5.60
2020,03,29,08,18,5.60
2020,03,29,08,19,5.60
2020,03,29,08,20,5.60
2020,03,29,08,21,5.60
2020,03,29,08,22,5.60
2020,03,29,08,23,5.70
2020,03,29,08,24,5.70
2020,03,29,08,25,5.70
2020,03,29,08,26,5.70
2020,03,29,08,27,5.80
2020,03,29,08,28,5.80
2020,03,29,08,29,5.90
2020,03,29,08,30,5.90
2020,03,29,08,31,5.90
2020,03,29,08,32,6.00
2020,03,29,08,33,6.00
2020,03,29,08,34,6.10
2020,03,29,08,35,6.10
2020,03,29,08,36,6.10
2020,03,29,08,37,6.20
2020,03,29,08,38,6.20
2020,03,29,08,39,6.20
2020,03,29,08,40,6.20
2020,03,29,08,41,6.20
2020,03,29,08,42,6.20
2020,03,29,08,43,6.30
2020,03,29,08,44,6.30
2020,03,29,08,45,6.30
2020,03,29,08,46,6.30
2020,03,29,08,47,6.30
2020,03,29,08,48,6.30
2020,03,29,08,49,6.30
2020,03,29,08,50,6.40
2020,03,29,08,51,6.40
2020,03,29,08,52,6.40
2020,03,29,08,53,6.50
2020,03,29,08,54,6.50
2020,03,29,08,55,6.60
2020,03,29,08,56,6.60
2020,03,29,08,57,6.70
2020,03,29,08,58,6.70
2020,03,29,08,59,6.70
2020,03,29,09,00,6.80
2020,03,29,09,01,6.80
2020,03,29,09,02,6.90
2020,03,29,09,03,6.90
2020,03,29,09,04,7.00
2020,03,29,09,05,7.10
2020,03,29,09,06,7.10
2020,03,29,09,07,7.20
2020,03,29,09,08,7.30
2020,03,29,09,09,7.40
2020,03,29,09,10,7.40
2020,03,29,09,11,7.50
2020,03,29,09,12,7.60
2020,03,29,09,13,7.60
2020,03,29,09,14,7.70
2020,03,29,09,15,7.80
2020,03,29,09,16,7.80
2020,03,29,09,17,8.00
2020,03,29,09,18,8.00
2020,03,29,09,19,8.10
2020,03,29,09,20,8.10
2020,03,29,09,21,8.10
2020,03,29,09,22,8.10
2020,03,29,09,23,8.20
2020,03,29,09,24,8.20
2020,03,29,09,25,8.20
2020,03,29,09,26,8.30
2020,03,29,09,27,8.30
2020,03,29,09,28,8.30
2020,03,29,09,29,8.30
2020,03,29,09,30,8.30
2020,03,29,09,31,8.30
2020,03,29,09,32,8.30
2020,03,29,09,33,8.40
2020,03,29,09,34,8.40
2020,03,29,09,35,8.40
2020,03,29,09,36,8.40
2020,03,29,09,37,8.50
2020,03,29,09,38,8.50
2020,03,29,09,39,8.50
2020,03,29,09,40,8.50
2020,03,29,09,41,8.60
2020,03,29,09,42,8.60
2020,03,29,09,43,8.70
2020,03,29,09,44,8.70
2020,03,29,09,45,8.80
2020,03,29,09,46,8.80
2020,03,29,09,47,8.80
2020,03,29,09,48,8.90
2020,03,29,09,49,9.00
2020,03,29,09,50,9.10
2020,03,29,09,51,9.20
2020,03,29,09,52,9.30
2020,03,29,09,53,9.30
2020,03,29,09,54,9.40
2020,03,29,09,55,9.50
2020,03,29,09,56,9.60
2020,03,29,09,57,9.70
2020,03,29,09,58,9.70
2020,03,29,09,59,9.70
2020,03,29,10,00,9.70
2020,03,29,10,01,9.70
2020,03,29,10,02,9.70
2020,03,29,10,03,9.70
2020,03,29,10,04,9.70
2020,03,29,10,05,9.70
2020,03,29,10,06,9.70
2020,03,29,10,07,9.70
2020,03,29,10,08,9.70
2020,03,29,10,09,9.80
2020,03,29,10,10,9.80
2020,03,29,10,11,9.80
2020,03,29,10,12,9.80
2020,03,29,10,13,9.80
2020,03,29,10,14,9.80
2020,03,29,10,15,9.80
2020,03,29,10,16,9.90
2020,03,29,10,17,9.90
2020,03,29,10,18,9.90
2020,03,29,10,19,9.90
2020,03,29,10,20,9.90
2020,03,29,10,21,9.90
2020,03,29,10,22,9.90
2020,03,29,10,23,10.00
2020,03,29,10,24,10.00
2020,03,29,10,25,10.10
2020,03,29,10,26,10.20
2020,03,29,10,27,10.30
2020,03,29,10,28,10.40
2020,03,29,10,29,10.50
2020,03,29,10,30,10.60
2020,03,29,10,31,10.70
2020,03,29,10,32,10.80
2020,03,29,10,33,10.80
2020,03,29,10,34,10.70
2020,03,29,10,35,10.70
2020,03,29,10,36,10.70
2020,03,29,10,37,10.80
2020,03,29,10,38,10.80
2020,03,29,10,39,10.80
2020,03,29,10,40,10.80
2020,03,29,10,41,10.80
2020,03,29,10,42,10.80
2020,03,29,10,43,10.80
2020,03,29,10,44,10.80
2020,03,29,10,45,10.90
2020,03,29,10,46,10.90
2020,03,29,10,47,10.90
2020,03,29,10,48,10.90
2020,03,29,10,49,10.90
2020,03,29,10,50,10.90
2020,03,29,10,51,10.90
2020,03,29,10,52,10.90
2020,03,29,10,53,10.90
2020,03,29,10,54,10.90
2020,03,29,10,55,10.90
2020,03,29,10,56,10.90
2020,03,29,10,57,10.90
2020,03,29,10,58,10.90
2020,03,29,10,59,11.00
2020,03,29,11,00,11.00
2020,03,29,11,01,11.00
2020,03,29,11,02,10.90
2020,03,29,11,03,10.90
2020,03,29,11,04,10.90
2020,03,29,11,05,10.90
2020,03,29,11,06,10.90
2020,03,29,11,07,10.80
2020,03,29,11,08,10.80
2020,03,29,11,09,10.80
2020,03,29,11,10,10.80
2020,03,29,11,11,10.80
2020,03,29,11,12,10.80
2020,03,29,11,13,10.80
2020,03,29,11,14,10.80
2020,03,29,11,15,10.90
2020,03,29,11,16,11.00
2020,03,29,11,17,11.10
2020,03,29,11,18,11.10
2020,03,29,11,19,11.10
2020,03,29,11,20,11.20
2020,03,29,11,21,11.20
2020,03,29,11,22,11.20
2020,03,29,11,23,11.20
2020,03,29,11,24,11.20
2020,03,29,11,25,11.20
2020,03,29,11,26,11.10
2020,03,29,11,27,11.10
2020,03,29,11,28,11.20
2020,03,29,11,29,11.20
2020,03,29,11,30,11.20
2020,03,29,11,31,11.20
2020,03,29,11,32,11.20
2020,03,29,11,33,11.20
2020,03,29,11,34,11.10
2020,03,29,11,35,11.10
2020,03,29,11,36,11.10
2020,03,29,11,37,11.00
2020,03,29,11,38,11.00
2020,03,29,11,39,11.00
2020,03,29,11,40,10.90
2020,03,29,11,41,10.90
2020,03,29,11,42,10.90
2020,03,29,11,43,10.90
2020,03,29,11,44,10.90
2020,03,29,11,45,10.90
2020,03,29,11,46,10.90
2020,03,29,11,47,10.90
2020,03,29,11,48,10.90
2020,03,29,11,49,10.90
2020,03,29,11,50,11.00
2020,03,29,11,51,11.00
2020,03,29,11,52,11.00
2020,03,29,11,53,11.10
2020,03,29,11,54,11.10
2020,03,29,11,55,11.20
2020,03,29,11,56,11.20
2020,03,29,11,57,11.20
2020,03,29,11,58,11.30
2020,03,29,11,59,11.30
2020,03,29,12,00,11.40
2020,03,29,12,01,11.40
2020,03,29,12,02,11.50
2020,03,29,12,03,11.60
2020,03,29,12,04,11.60
2020,03,29,12,05,11.60
2020,03,29,12,06,11.60
2020,03,29,12,07,11.60
2020,03,29,12,08,11.60
2020,03,29,12,09,11.70
2020,03,29,12,10,11.70
2020,03,29,12,11,11.70
2020,03,29,12,12,11.70
2020,03,29,12,13,11.70
2020,03,29,12,14,11.70
2020,03,29,12,15,11.70
2020,03,29,12,16,11.70
2020,03,29,12,17,11.70
2020,03,29,12,18,11.70
2020,03,29,12,19,11.70
2020,03,29,12,20,11.80
2020,03,29,12,21,11.80
2020,03,29,12,22,11.80
2020,03,29,12,23,11.80
2020,03,29,12,24,11.80
2020,03,29,12,25,11.90
2020,03,29,12,26,12.00
2020,03,29,12,27,12.00
2020,03,29,12,28,12.00
2020,03,29,12,29,12.00
2020,03,29,12,30,12.00
2020,03,29,12,31,12.00
2020,03,29,12,32,12.10
2020,03,29,12,33,12.10
2020,03,29,12,34,12.10
2020,03,29,12,35,12.10
2020,03,29,12,36,12.10
2020,03,29,12,37,12.00
2020,03,29,12,38,11.90
2020,03,29,12,39,11.90
2020,03,29,12,40,11.80
2020,03,29,12,41,11.80
2020,03,29,12,42,11.80
2020,03,29,12,43,11.70
2020,03,29,12,44,11.70
2020,03,29,12,45,11.70
2020,03,29,12,46,11.60
2020,03,29,12,47,11.70
2020,03,29,12,48,11.70
2020,03,29,12,49,11.80
2020,03,29,12,50,11.80
2020,03,29,12,51,11.80
2020,03,29,12,52,11.90
2020,03,29,12,53,11.90
2020,03,29,12,54,11.90
2020,03,29,12,55,12.00
2020,03,29,12,56,12.10
2020,03,29,12,57,12.20
2020,03,29,12,58,12.20
2020,03,29,12,59,12.20
2020,03,29,13,00,12.20
2020,03,29,13,01,12.30
2020,03,29,13,02,12.30
2020,03,29,13,03,12.30
2020,03,29,13,04,12.30
2020,03,29,13,05,12.30
2020,03,29,13,06,12.40
2020,03,29,13,07,12.40
2020,03,29,13,08,12.40
2020,03,29,13,09,12.50
2020,03,29,13,10,12.50
2020,03,29,13,11,12.50
2020,03,29,13,12,12.40
2020,03,29,13,13,12.30
2020,03,29,13,14,12.20
2020,03,29,13,15,12.10
2020,03,29,13,16,12.10
2020,03,29,13,17,12.10
2020,03,29,13,18,12.10
2020,03,29,13,19,12.10
2020,03,29,13,20,12.00
2020,03,29,13,21,12.10
2020,03,29,13,22,12.10
2020,03,29,13,23,12.10
2020,03,29,13,24,12.10
2020,03,29,13,25,12.10
2020,03,29,13,26,12.20
2020,03,29,13,27,12.20
2020,03,29,13,28,12.20
2020,03,29,13,29,12.20
2020,03,29,13,30,12.20
2020,03,29,13,31,12.10
2020,03,29,13,32,12.10
2020,03,29,13,33,12.00
2020,03,29,13,34,11.90
2020,03,29,13,35,11.90
2020,03,29,13,36,11.90
2020,03,29,13,37,11.80
2020,03,29,13,38,11.70
2020,03,29,13,39,11.70
2020,03,29,13,40,11.70
2020,03,29,13,41,11.70
2020,03,29,13,42,11.70
2020,03,29,13,43,11.70
2020,03,29,13,44,11.80
2020,03,29,13,45,11.80
2020,03,29,13,46,11.80
2020,03,29,13,47,11.80
2020,03,29,13,48,11.80
2020,03,29,13,49,11.80
2020,03,29,13,50,11.80
2020,03,29,13,51,11.80
2020,03,29,13,52,11.80
2020,03,29,13,53,11.80
2020,03,29,13,54,11.80
2020,03,29,13,55,11.90
2020,03,29,13,56,11.90
2020,03,29,13,57,11.90
2020,03,29,13,58,11.90
2020,03,29,13,59,11.80
2020,03,29,14,00,11.80
2020,03,29,14,01,11.80
2020,03,29,14,02,11.80
2020,03,29,14,03,11.80
2020,03,29,14,04,11.80
2020,03,29,14,05,11.70
2020,03,29,14,06,11.70
2020,03,29,14,07,11.70
2020,03,29,14,08,11.70
2020,03,29,14,09,11.60
2020,03,29,14,10,11.60
2020,03,29,14,11,11.50
2020,03,29,14,12,11.50
2020,03,29,14,13,11.40
2020,03,29,14,14,11.40
2020,03,29,14,15,11.40
2020,03,29,14,16,11.30
2020,03,29,14,17,11.30
2020,03,29,14,18,11.30
2020,03,29,14,19,11.30
2020,03,29,14,20,11.30
2020,03,29,14,21,11.30
2020,03,29,14,22,11.30
2020,03,29,14,23,11.30
2020,03,29,14,24,11.40
2020,03,29,14,25,11.40
2020,03,29,14,26,11.40
2020,03,29,14,27,11.50
2020,03,29,14,28,11.60
2020,03,29,14,29,11.60
2020,03,29,14,30,11.60
2020,03,29,14,31,11.70
2020,03,29,14,32,11.70
2020,03,29,14,33,11.70
2020,03,29,14,34,11.60
2020,03,29,14,35,11.60
2020,03,29,14,36,11.60
2020,03,29,14,37,11.60
2020,03,29,14,38,11.60
2020,03,29,14,39,11.60
2020,03,29,14,40,11.60
2020,03,29,14,41,11.50
2020,03,29,14,42,11.50
2020,03,29,14,43,11.40
2020,03,29,14,44,11.40
2020,03,29,14,45,11.30
2020,03,29,14,46,11.30
2020,03,29,14,47,11.30
2020,03,29,14,48,11.30
2020,03,29,14,49,11.20
2020,03,29,14,50,11.30
2020,03,29,14,51,11.30
2020,03,29,14,52,11.30
2020,03,29,14,53,11.30
2020,03,29,14,54,11.30
2020,03,29,14,55,11.30
2020,03,29,14,56,11.30
2020,03,29,14,57,11.30
2020,03,29,14,58,11.30
2020,03,29,14,59,11.30
2020,03,29,15,00,11.30
2020,03,29,15,01,11.30
2020,03,29,15,02,11.30
2020,03,29,15,03,11.40
2020,03,29,15,04,11.40
2020,03,29,15,05,11.50
2020,03,29,15,06,11.50
2020,03,29,15,07,11.60
2020,03,29,15,08,11.60
2020,03,29,15,09,11.60
2020,03,29,15,10,11.60
2020,03,29,15,11,11.60
2020,03,29,15,12,11.60
2020,03,29,15,13,11.60
2020,03,29,15,14,11.60
2020,03,29,15,15,11.60
2020,03,29,15,16,11.60
2020,03,29,15,17,11.60
2020,03,29,15,18,11.60
2020,03,29,15,19,11.50
2020,03,29,15,20,11.50
2020,03,29,15,21,11.50
2020,03,29,15,22,11.40
2020,03,29,15,23,11.40
2020,03,29,15,24,11.40
2020,03,29,15,25,11.40
2020,03,29,15,26,11.40
2020,03,29,15,27,11.40
2020,03,29,15,28,11.40
2020,03,29,15,29,11.30
2020,03,29,15,30,11.30
2020,03,29,15,31,11.30
2020,03,29,15,32,11.30
2020,03,29,15,33,11.30
2020,03,29,15,34,11.30
2020,03,29,15,35,11.30
2020,03,29,15,36,11.30
2020,03,29,15,37,11.30
2020,03,29,15,38,11.30
2020,03,29,15,39,11.30
2020,03,29,15,40,11.30
2020,03,29,15,41,11.30
2020,03,29,15,42,11.30
2020,03,29,15,43,11.30
2020,03,29,15,44,11.30
2020,03,29,15,45,11.30
2020,03,29,15,46,11.30
2020,03,29,15,47,11.30
2020,03,29,15,48,11.30
2020,03,29,15,49,11.20
2020,03,29,15,50,11.20
2020,03,29,15,51,11.20
2020,03,29,15,52,11.10
2020,03,29,15,53,11.10
2020,03,29,15,54,11.10
2020,03,29,15,55,11.10
2020,03,29,15,56,11.00
2020,03,29,15,57,11.00
2020,03,29,15,58,11.00
2020,03,29,15,59,10.90
2020,03,29,16,00,10.90
2020,03,29,16,01,10.90
2020,03,29,16,02,10.90
2020,03,29,16,03,11.00
2020,03,29,16,04,11.00
2020,03,29,16,05,11.00
2020,03,29,16,06,11.00
2020,03,29,16,07,11.10
2020,03,29,16,08,11.10
2020,03,29,16,09,11.10
2020,03,29,16,10,11.10
2020,03,29,16,11,11.20
2020,03,29,16,12,11.20
2020,03,29,16,13,11.20
2020,03,29,16,14,11.30
2020,03,29,16,15,11.30
2020,03,29,16,16,11.30
2020,03,29,16,17,11.30
2020,03,29,16,18,11.30
2020,03,29,16,19,11.30
2020,03,29,16,20,11.30
2020,03,29,16,21,11.30
2020,03,29,16,22,11.30
2020,03,29,16,23,11.30
2020,03,29,16,24,11.20
2020,03,29,16,25,11.20
2020,03,29,16,26,11.20
2020,03,29,16,27,11.30
2020,03,29,16,28,11.20
2020,03,29,16,29,11.20
2020,03,29,16,30,11.20
2020,03,29,16,31,11.20
2020,03,29,16,32,11.20
2020,03,29,16,33,11.20
2020,03,29,16,34,11.20
2020,03,29,16,35,11.20
2020,03,29,16,36,11.20
2020,03,29,16,37,11.20
2020,03,29,16,38,11.10
2020,03,29,16,39,11.10
2020,03,29,16,40,11.10
2020,03,29,16,41,11.10
2020,03,29,16,42,11.00
2020,03,29,16,43,11.00
2020,03,29,16,44,10.90
2020,03,29,16,45,10.90
2020,03,29,16,46,10.90
2020,03,29,16,47,10.90
2020,03,29,16,48,10.80
2020,03,29,16,49,10.80
2020,03,29,16,50,10.80
2020,03,29,16,51,10.80
2020,03,29,16,52,10.70
2020,03,29,16,53,10.70
2020,03,29,16,54,10.70
2020,03,29,16,55,10.60
2020,03,29,16,56,10.60
2020,03,29,16,57,10.60
2020,03,29,16,58,10.60
2020,03,29,16,59,10.50
2020,03,29,17,00,10.50
2020,03,29,17,01,10.50
2020,03,29,17,02,10.50
2020,03,29,17,03,10.50
2020,03,29,17,04,10.50
2020,03,29,17,05,10.50
2020,03,29,17,06,10.50
2020,03,29,17,07,10.50
2020,03,29,17,08,10.50
2020,03,29,17,09,10.50
2020,03,29,17,10,10.50
2020,03,29,17,11,10.50
2020,03,29,17,12,10.50
2020,03,29,17,13,10.60
2020,03,29,17,14,10.60
2020,03,29,17,15,10.60
2020,03,29,17,16,10.60
2020,03,29,17,17,10.60
2020,03,29,17,18,10.60
2020,03,29,17,19,10.60
2020,03,29,17,20,10.50
2020,03,29,17,21,10.50
2020,03,29,17,22,10.50
2020,03,29,17,23,10.50
2020,03,29,17,24,10.50
2020,03,29,17,25,10.50
2020,03,29,17,26,10.50
2020,03,29,17,27,10.50
2020,03,29,17,28,10.50
2020,03,29,17,29,10.40
2020,03,29,17,30,10.40
2020,03,29,17,31,10.40
2020,03,29,17,32,10.40
2020,03,29,17,33,10.40
2020,03,29,17,34,10.40
2020,03,29,17,35,10.40
2020,03,29,17,36,10.40
2020,03,29,17,37,10.40
2020,03,29,17,38,10.50
2020,03,29,17,39,10.50
2020,03,29,17,40,10.50
2020,03,29,17,41,10.50
2020,03,29,17,42,10.50
2020,03,29,17,43,10.50
2020,03,29,17,44,10.50
2020,03,29,17,45,10.50
2020,03,29,17,46,10.50